[[{"header":{"parameterUnit":"m.s-1","parameterCategory":1,"la1":30.2991,"la2":30.254,"lo1":-89.0895,"lo2":-89.0444,"dy":0.0017,"dx":0.0017,"nx":28,"ny":28,"refTime":"2025-06-11T03:00:00:Z","depth":0,"parameterNumber":2,"parameterNumberName":"U-component_of_WINDS"},"data":[0,0,0,0,0,0,0,0,0,0,0,0,0,0,0,0,0,0,0,0,0,0,0,0,0,0,0,0,0,0,0,0,0,0,0,0,0,0,0,0,0,0,0,0,0,0,0,0,0,0,0,0,0,0,0,0,0,0,-1.4968,-1.4967,0,-1.4933,-1.4933,-1.4932,-1.4879,-1.4878,-1.4877,-1.4876,-1.484,-1.484,-1.484,0,0,0,0,0,0,0,0,0,0,0,0,0,-1.4989,-1.4989,-1.4968,-1.4967,-1.4967,-1.4933,-1.4933,-1.4932,-1.4879,-1.4878,-1.4877,-1.4876,-1.484,-1.484,-1.484,0,0,0,0,0,0,0,0,0,0,0,0,0,-1.4969,-1.4989,-1.4968,-1.4937,-1.4933,-1.4933,-1.4933,-1.4932,-1.488,-1.4878,-1.4877,-1.4875,-1.484,-1.484,-1.484,-1.4867,0,0,-1.484,-1.484,0,0,0,0,0,0,0,0,-1.4971,-1.4969,-1.4942,-1.4939,-1.4935,-1.4909,-1.4927,-1.491,-1.488,-1.49,-1.4876,-1.4875,-1.4864,-1.4862,-1.4859,-1.4866,-1.4864,-1.484,-1.4839,-1.4839,-1.4839,0,0,0,0,0,0,0,-1.4972,-1.497,-1.4954,-1.4941,-1.4937,-1.4924,-1.492,-1.4923,-1.489,-1.4898,-1.4894,-1.4891,-1.4862,-1.4859,-1.4857,-1.4864,-1.484,-1.4839,-1.4839,-1.4839,-1.4891,-1.4892,0,0,0,0,0,0,-1.4978,-1.4971,-1.4955,-1.4953,-1.495,-1.4925,-1.492,-1.4919,-1.489,-1.4885,-1.4892,-1.4889,-1.486,-1.4858,-1.4856,-1.4885,-1.4839,-1.4839,-1.4839,-1.489,-1.4891,-1.4893,0,0,0,0,0,0,-1.4979,-1.4977,-1.4957,-1.4961,-1.4958,-1.4926,-1.4925,-1.4919,-1.4915,-1.4886,-1.488,-1.4895,-1.4859,-1.4856,-1.4865,-1.4883,-1.4839,-1.4839,-1.4888,-1.489,-1.4892,-1.4945,0,0,0,0,0,0,-1.498,-1.4978,-1.4988,-1.4962,-1.4957,-1.4966,-1.4926,-1.4919,-1.4915,-1.491,-1.4886,-1.4881,-1.4857,-1.4865,-1.4865,-1.4882,-1.4839,-1.4886,-1.4889,-1.4892,-1.4941,-1.4949,-1.4955,0,0,0,0,0,-1.498,-1.5004,-1.4988,-1.4987,-1.4969,-1.4967,-1.4965,-1.4937,-1.4917,-1.4927,-1.4908,-1.4882,-1.4882,-1.4867,-1.4866,-1.4883,-1.4885,-1.4888,-1.4891,-1.4938,-1.4947,-1.4955,0,0,0,0,0,0,-1.5032,-1.5,-1.4982,-1.4998,-1.4986,-1.4959,-1.497,-1.4948,-1.4941,-1.4936,-1.4902,-1.4897,-1.491,-1.4898,-1.4882,-1.4908,-1.4879,-1.4883,-1.4915,-1.4924,-1.493,-1.4932,-1.4839,0,0,0,0,0,-1.5046,-1.5047,-1.5018,-1.5035,-1.503,-1.5001,-1.4999,-1.4979,-1.4965,-1.496,-1.4941,-1.4929,-1.4925,-1.4924,-1.492,-1.494,-1.4934,-1.4952,-1.4959,-1.4964,-1.4967,-1.4976,-1.4984,-1.4904,-1.4904,-1.4904,0,0,-1.5073,-1.5055,-1.5058,-1.5045,-1.5033,-1.5035,-1.4997,-1.5001,-1.5002,-1.496,-1.4967,-1.4953,-1.4937,-1.4952,-1.4957,-1.4942,-1.4988,-1.4968,-1.4973,-1.4973,-1.498,-1.4988,-1.4995,-1.4906,-1.4906,-1.4905,0,0,-1.5123,-1.5111,-1.5123,-1.5112,-1.5095,-1.5076,-1.5079,-1.5055,-1.5044,-1.5051,-1.502,-1.5021,-1.5016,-1.5006,-1.5,-1.5048,-1.5023,-1.5048,-1.5082,-1.5092,-1.5098,-1.5103,-1.5119,-1.5125,-1.5051,-1.5051,-1.5051,0,-1.5159,-1.5161,-1.5132,-1.5137,-1.5132,-1.5096,-1.5107,-1.5098,-1.5081,-1.5078,-1.5062,-1.5056,-1.5042,-1.5053,-1.5065,-1.5062,-1.5064,-1.5049,-1.5099,-1.5104,-1.5109,-1.5124,-1.513,-1.5054,-1.5053,-1.5053,-1.5053,0,-1.5205,-1.5207,-1.5219,-1.5203,-1.52,-1.5209,-1.5181,-1.5181,-1.5162,-1.5144,-1.5152,-1.5134,-1.5126,-1.5127,-1.5108,-1.5136,-1.5127,-1.5106,-1.5075,-1.512,-1.5133,-1.5139,-1.5058,-1.5057,-1.5056,-1.5055,0,0,-1.5286,-1.5254,-1.5259,-1.5251,-1.523,-1.5231,-1.5239,-1.523,-1.5231,-1.5221,-1.5225,-1.5223,-1.5203,-1.5197,-1.5176,-1.5185,-1.5223,-1.5162,-1.5161,-1.5173,-1.5252,-1.5267,-1.5274,-1.5208,-1.5209,-1.5209,-1.5252,0,-1.5331,-1.5341,-1.5316,-1.5333,-1.5334,-1.5299,-1.5306,-1.5294,-1.5278,-1.5277,-1.5259,-1.5258,-1.5232,-1.5228,-1.5235,-1.5217,-1.5238,-1.5214,-1.5211,-1.5211,-1.5214,-1.5281,-1.5297,-1.5339,-1.5258,-1.5259,-1.5259,0,-1.5384,-1.5377,-1.5394,-1.5372,-1.5371,-1.5377,-1.5368,-1.5367,-1.5353,-1.5341,-1.5335,-1.5311,-1.5317,-1.5289,-1.5296,-1.528,-1.5278,-1.5269,-1.527,-1.5267,-1.5237,-1.5279,-1.5351,-1.5357,-1.5267,-1.5267,-1.5266,0,-1.544,-1.5434,-1.5443,-1.5438,-1.5413,-1.5418,-1.5408,-1.5392,-1.5389,-1.5381,-1.5379,-1.5372,-1.5367,-1.5362,-1.5338,-1.532,-1.5347,-1.5318,-1.5337,-1.5338,-1.5343,-1.5342,-1.5414,-1.5344,-1.5344,-1.5344,-1.5344,0,-1.5492,-1.5503,-1.5468,-1.5473,-1.5485,-1.5456,-1.5469,-1.5455,-1.5442,-1.5444,-1.5415,-1.5417,-1.5385,-1.5384,-1.5365,-1.5374,-1.5372,-1.5362,-1.5357,-1.5364,-1.5365,-1.5361,-1.5357,-1.5345,-1.5345,-1.5345,-1.5345,0,-1.5555,-1.5532,-1.5539,-1.5516,-1.551,-1.552,-1.5499,-1.5503,-1.5486,-1.549,-1.5489,-1.5462,-1.546,-1.5435,-1.5427,-1.5414,-1.543,-1.5419,-1.5434,-1.543,-1.545,-1.5448,-1.5521,-1.5528,-1.5455,-1.5455,-1.5456,0,-1.5589,-1.5597,-1.5574,-1.5573,-1.5565,-1.5564,-1.5561,-1.5534,-1.5531,-1.5516,-1.5522,-1.5517,-1.5512,-1.551,-1.549,-1.5483,-1.5472,-1.5498,-1.5471,-1.5478,-1.5471,-1.547,-1.547,-1.5503,-1.5504,-1.5505,-1.5505,0,-1.5651,-1.564,-1.5636,-1.5629,-1.5626,-1.5619,-1.561,-1.5611,-1.5581,-1.558,-1.5577,-1.5573,-1.5565,-1.5561,-1.5551,-1.5541,-1.5518,-1.5514,-1.5518,-1.5525,-1.5533,-1.5528,-1.5449,-1.5512,-1.5512,-1.5511,-1.5511,-1.5511,-1.57,-1.5705,-1.569,-1.5687,-1.5678,-1.567,-1.5673,-1.5657,-1.5654,-1.5645,-1.563,-1.5629,-1.5615,-1.56,-1.5592,-1.5591,-1.5577,-1.5583,-1.5584,-1.5586,-1.5589,-1.5535,-1.5589,-1.5589,-1.5589,-1.5588,-1.5588,0,-1.576,-1.5748,-1.5746,-1.5735,-1.5733,-1.5712,-1.5702,-1.5701,-1.5701,-1.569,-1.5686,-1.5683,-1.5678,-1.5658,-1.5652,-1.5655,-1.5644,-1.5654,-1.5653,-1.5651,-1.5602,-1.5599,-1.5663,-1.5663,-1.5663,-1.5663,-1.5663,-1.5663,-1.579,-1.5798,-1.5785,-1.5788,-1.5777,-1.5776,-1.5772,-1.5765,-1.5756,-1.5754,-1.575,-1.5737,-1.5723,-1.5715,-1.571,-1.5704,-1.5703,-1.5716,-1.5706,-1.5661,-1.5654,-1.5647,-1.5644,-1.5716,-1.5716,-1.5755,-1.5755,-1.5755]},{"header":{"parameterUnit":"m.s-1","parameterCategory":1,"la1":30.2991,"la2":30.254,"lo1":-89.0895,"lo2":-89.0444,"dy":0.0017,"dx":0.0017,"nx":28,"ny":28,"refTime":"2025-06-11T03:00:00:Z","depth":0,"parameterNumber":3,"parameterNumberName":"V-component_of_WINDS"},"data":[0,0,0,0,0,0,0,0,0,0,0,0,0,0,0,0,0,0,0,0,0,0,0,0,0,0,0,0,0,0,0,0,0,0,0,0,0,0,0,0,0,0,0,0,0,0,0,0,0,0,0,0,0,0,0,0,0,0,2.7837,2.7837,0,2.786,2.786,2.786,2.7908,2.7909,2.791,2.7911,2.7929,2.7929,2.7929,0,0,0,0,0,0,0,0,0,0,0,0,0,2.7831,2.7831,2.7837,2.7837,2.7837,2.786,2.786,2.786,2.7908,2.7909,2.7911,2.7912,2.793,2.7929,2.7929,0,0,0,0,0,0,0,0,0,0,0,0,0,2.7842,2.7831,2.7837,2.7864,2.7867,2.786,2.786,2.786,2.7908,2.7909,2.7911,2.7912,2.793,2.7929,2.7928,2.7895,0,0,2.7926,2.7926,0,0,0,0,0,0,0,0,2.7841,2.7842,2.786,2.7862,2.7865,2.7883,2.7865,2.7872,2.7908,2.7892,2.7911,2.7913,2.7912,2.7913,2.7914,2.7896,2.7897,2.7926,2.7926,2.7926,2.7926,0,0,0,0,0,0,0,2.784,2.7841,2.7846,2.786,2.7863,2.7874,2.7877,2.7866,2.7893,2.7894,2.7897,2.7899,2.7914,2.7915,2.7915,2.7897,2.7926,2.7926,2.7925,2.7925,2.7854,2.7852,0,0,0,0,0,0,2.7836,2.784,2.7845,2.7846,2.7857,2.7873,2.7877,2.7876,2.7894,2.7898,2.7898,2.7902,2.7915,2.7916,2.7916,2.7878,2.7926,2.7925,2.7925,2.7855,2.7853,2.7852,0,0,0,0,0,0,2.7836,2.7836,2.7844,2.7844,2.7846,2.7872,2.787,2.7875,2.7876,2.7897,2.7902,2.7894,2.7916,2.7917,2.79,2.788,2.7925,2.7924,2.7857,2.7854,2.7852,2.7803,0,0,0,0,0,0,2.7835,2.7836,2.7824,2.7844,2.7846,2.7829,2.7869,2.7875,2.7875,2.788,2.7895,2.7898,2.7917,2.7901,2.79,2.788,2.7924,2.7859,2.7856,2.7853,2.7806,2.7799,2.7793,0,0,0,0,0,2.7835,2.7808,2.7823,2.7823,2.7832,2.7828,2.7829,2.7853,2.7873,2.7861,2.7876,2.7898,2.7883,2.7899,2.7898,2.7877,2.786,2.7857,2.7853,2.7809,2.7801,2.7793,0,0,0,0,0,0,2.7782,2.7811,2.7828,2.7806,2.7815,2.7836,2.7822,2.7843,2.7844,2.7848,2.7876,2.7879,2.7859,2.7867,2.7885,2.7846,2.7875,2.7871,2.7842,2.7834,2.7827,2.7825,2.7923,0,0,0,0,0,2.7768,2.7764,2.7789,2.7767,2.7771,2.7796,2.7795,2.7813,2.7822,2.7825,2.7838,2.7844,2.7841,2.7838,2.7836,2.7808,2.7812,2.7794,2.7787,2.7781,2.7777,2.7764,2.7756,2.784,2.784,2.784,0,0,2.7739,2.7754,2.7749,2.7757,2.7766,2.776,2.7798,2.7789,2.7785,2.7823,2.7809,2.7819,2.7828,2.7806,2.7797,2.7812,2.7755,2.7777,2.7772,2.7771,2.7759,2.7751,2.7744,2.7838,2.7838,2.7839,0,0,2.7683,2.7694,2.7678,2.7686,2.77,2.7717,2.7713,2.7732,2.774,2.7727,2.7756,2.775,2.7744,2.775,2.7752,2.77,2.7721,2.7699,2.7663,2.7649,2.7643,2.7637,2.7618,2.7612,2.7695,2.7695,2.7695,0,2.7644,2.7637,2.7666,2.7657,2.766,2.7696,2.768,2.7686,2.7697,2.7697,2.7715,2.7709,2.7717,2.7698,2.7685,2.7686,2.7682,2.7696,2.7642,2.7636,2.7631,2.7614,2.7607,2.7692,2.7692,2.7693,2.7693,0,2.7589,2.7584,2.757,2.7582,2.7583,2.757,2.7596,2.7594,2.7612,2.7627,2.7613,2.7626,2.7627,2.7624,2.7641,2.7607,2.7616,2.7637,2.7666,2.762,2.7604,2.7598,2.7688,2.7689,2.769,2.769,0,0,2.7498,2.7529,2.7523,2.753,2.7548,2.7544,2.7533,2.7537,2.7534,2.7541,2.7532,2.7527,2.7547,2.7549,2.7567,2.7556,2.7514,2.7578,2.7579,2.7566,2.7478,2.7462,2.7454,2.7529,2.7528,2.7527,2.7477,0,2.7445,2.743,2.7456,2.7433,2.7429,2.7465,2.7455,2.7465,2.7479,2.7477,2.7492,2.7488,2.7515,2.7517,2.7507,2.7521,2.7497,2.7525,2.7519,2.7519,2.7515,2.7445,2.7428,2.738,2.7471,2.747,2.7469,0,2.7381,2.7388,2.7365,2.7387,2.7386,2.7377,2.7383,2.7381,2.7393,2.7404,2.7408,2.743,2.742,2.7449,2.7435,2.7454,2.7454,2.746,2.7459,2.7459,2.7491,2.7442,2.7366,2.7358,2.746,2.7461,2.7461,0,2.7317,2.732,2.7307,2.7312,2.7336,2.7329,2.7339,2.7353,2.7354,2.7359,2.736,2.7363,2.7364,2.7366,2.7389,2.7408,2.7372,2.7403,2.738,2.7379,2.7369,2.737,2.7291,2.737,2.737,2.737,2.737,0,2.7255,2.724,2.7279,2.7271,2.7255,2.7286,2.7269,2.7282,2.7294,2.7289,2.7319,2.7313,2.7344,2.7341,2.7358,2.7344,2.7344,2.7352,2.7357,2.7349,2.7348,2.7349,2.7352,2.7368,2.7369,2.7369,2.7369,0,2.718,2.7206,2.7194,2.722,2.7226,2.7213,2.7234,2.7227,2.7244,2.7237,2.7237,2.7263,2.7261,2.7285,2.7287,2.7299,2.7276,2.7287,2.7273,2.7276,2.7252,2.7254,2.717,2.7161,2.7246,2.7245,2.7244,0,2.7138,2.7128,2.7153,2.7152,2.7161,2.716,2.7162,2.7192,2.7193,2.7207,2.7198,2.72,2.7202,2.7198,2.7216,2.7218,2.7229,2.7199,2.7229,2.7222,2.7228,2.7228,2.7227,2.7192,2.7191,2.7191,2.719,0,2.7061,2.7075,2.7078,2.7086,2.7088,2.7095,2.7103,2.7101,2.7134,2.7133,2.7133,2.7135,2.7139,2.714,2.7146,2.7154,2.7177,2.7181,2.7176,2.7167,2.7159,2.7163,2.7255,2.7182,2.7183,2.7183,2.7184,2.7184,2.7002,2.6994,2.7012,2.7014,2.7024,2.7032,2.7028,2.7045,2.7047,2.7053,2.7071,2.7068,2.7081,2.7092,2.7099,2.7096,2.711,2.7103,2.7101,2.7098,2.7094,2.7161,2.7097,2.7098,2.7098,2.7098,2.7098,0,2.6926,2.694,2.6942,2.6955,2.6956,2.6981,2.6992,2.6991,2.6989,2.7,2.7003,2.7003,2.7005,2.7024,2.7028,2.7022,2.7033,2.7022,2.7022,2.7024,2.7081,2.7085,2.7014,2.7014,2.7014,2.7014,2.7014,2.7014,2.6888,2.6877,2.6893,2.6888,2.6902,2.6901,2.6905,2.6913,2.6922,2.6922,2.6924,2.6938,2.6952,2.6957,2.696,2.6965,2.6965,2.695,2.6959,2.7012,2.702,2.7028,2.7032,2.695,2.695,2.6903,2.6903,2.6902]}]]